This is the latest recevied weather packets stored in our database for station/object OM6ACB-6. If no packets are shown the sender has not sent any weather packets the latest 10 day(s).
| Time | Temp. | Humidity | Pressure | Rain* | Wind** | Luminosity | Snow |
|---|---|---|---|---|---|---|---|
| 1777616484 | 7.22° C | 29% | 1028.6 hPa | 0 mm | - | - | - |
| 1777615884 | 6.11° C | 30% | 1028.4 hPa | 0 mm | - | - | - |
| 1777615284 | 5.56° C | 30% | 1028.3 hPa | 0 mm | - | - | - |
| 1777614684 | 5° C | 30% | 1028.2 hPa | 0 mm | - | - | - |
| 1777614083 | 4.44° C | 30% | 1028.3 hPa | 0 mm | - | - | - |
| 1777613483 | 4.44° C | 30% | 1028.2 hPa | 0 mm | - | - | - |
| 1777612883 | 3.89° C | 31% | 1028.2 hPa | 0 mm | - | - | - |
| 1777612282 | 3.89° C | 31% | 1028 hPa | 0 mm | - | - | - |
| 1777611682 | 3.33° C | 31% | 1028 hPa | 0 mm | - | - | - |
| 1777611082 | 3.33° C | 31% | 1027.9 hPa | 0 mm | - | - | - |
| 1777610482 | 2.78° C | 31% | 1027.8 hPa | 0 mm | - | - | - |
| 1777609881 | 2.22° C | 31% | 1027.7 hPa | 0 mm | - | - | - |
| 1777609281 | 2.22° C | 32% | 1027.7 hPa | 0 mm | - | - | - |
| 1777608681 | 2.22° C | 31% | 1027.7 hPa | 0 mm | - | - | - |
| 1777608080 | 1.67° C | 32% | 1027.5 hPa | 0 mm | - | - | - |
| 1777607480 | 1.67° C | 32% | 1027.5 hPa | 0 mm | - | - | - |
| 1777606880 | 1.67° C | 32% | 1027.5 hPa | 0 mm | - | - | - |
| 1777606280 | 1.67° C | 32% | 1027.5 hPa | 0 mm | - | - | - |
| 1777605679 | 1.67° C | 32% | 1027.5 hPa | 0 mm | - | - | - |
| 1777605079 | 1.67° C | 32% | 1027.5 hPa | 0 mm | - | - | - |
| 1777604479 | 1.11° C | 32% | 1027.5 hPa | 0 mm | - | - | - |
| 1777603878 | 1.11° C | 32% | 1027.5 hPa | 0 mm | - | - | - |
| 1777603278 | 1.11° C | 32% | 1027.5 hPa | 0 mm | - | - | - |
| 1777602678 | 1.11° C | 32% | 1027.4 hPa | 0 mm | - | - | - |
| 1777602077 | 1.11° C | 32% | 1027.4 hPa | 0 mm | - | - | - |
* Rain latest hour (hover to see other rain measurements)
** Current wind speed in m/s (hover to see current wind gust speed)